Philadelphia, PA

4:08 AM EDT on August 25, 2016 (GMT -0400)
Northeast Philadelphia

Weather History for KPNE - March, 2013

Change the Weather History Date:

Friday, March 1, 2013

  Actual Average Record
Temperature  
Mean Temperature 40 °F -  
Max Temperature 46 °F 45 °F 66 °F (2004)
Min Temperature 34 °F 28 °F 15 °F (2014)
Degree Days  
Heating Degree Days 25    
Moisture  
Dew Point 27 °F    
Average Humidity 63    
Maximum Humidity 82    
Minimum Humidity 46    
Precipitation  
Precipitation 0.00 in - - ()
Sea Level Pressure  
Sea Level Pressure 29.75 in    
Wind  
Wind Speed 10 mph (NW)    
Max Wind Speed 17 mph    
Max Gust Speed 25 mph    
Visibility 10 miles    
Events      
Averages and records for this station are not official NWS values.
T = Trace of Precipitation, MM = Missing Value Source: NWS Daily Summary

Daily Weather History Graph

Daily Weather History Graph

Search for Another Location

Airport or City:

Trip Planner

Search our weather history database for the weather conditions in past years. The results will help you decide how hot, cold, wet, or windy it might be!

Date:

Astronomy

Mar. 01, 2013 Rise Set
Actual Time 6:33 AM EST 5:52 PM EST
Civil Twilight 6:05 AM EST 6:19 PM EST
Nautical Twilight 5:34 AM EST 6:50 PM EST
Astronomical Twilight 5:03 AM EST 7:22 PM EST
Moon 10:22 PM EST (3/1) 8:18 AM EST (3/1)
Length of Visible Light 12h 13m
Length of Day
11h 19m
Waning Gibbous, 83% of the Moon is Illuminated
Mar 1
Waning Gibbous
Mar 4
Last Quarter
Mar 11
New
Mar 19
First Quarter
Mar 27
Full

Hourly Weather History & Observations

Time (EST) Temp. Windchill Dew Point Humidity Pressure Visibility Wind Dir Wind Speed Gust Speed Precip Events Conditions
12:54 AM 36.0 °F 29.0 °F 30.0 °F 79% 29.66 in 10.0 mi WNW 9.2 mph - N/A   Clear
1:54 AM 36.0 °F 29.0 °F 28.9 °F 76% 29.68 in 10.0 mi WNW 9.2 mph - N/A   Clear
2:54 AM 35.6 °F 28.6 °F 28.4 °F 75% 29.68 in 10.0 mi WNW 9.2 mph - N/A   Clear
3:54 AM 34.0 °F 27.2 °F 28.9 °F 82% 29.70 in 10.0 mi WNW 8.1 mph - N/A   Clear
4:54 AM 34.0 °F 28.0 °F 28.9 °F 82% 29.71 in 10.0 mi WNW 6.9 mph - N/A   Clear
5:54 AM 35.1 °F 29.3 °F 30.0 °F 82% 29.71 in 10.0 mi WNW 6.9 mph - N/A   Mostly Cloudy
6:54 AM 35.1 °F 30.1 °F 28.9 °F 78% 29.72 in 10.0 mi WNW 5.8 mph - N/A   Scattered Clouds
7:54 AM 39.0 °F 33.4 °F 28.9 °F 67% 29.75 in 10.0 mi NW 8.1 mph - N/A   Clear
8:54 AM 42.1 °F 35.2 °F 28.9 °F 60% 29.75 in 10.0 mi NW 12.7 mph - N/A   Clear
9:54 AM 41.0 °F 33.5 °F 28.4 °F 61% 29.76 in 10.0 mi North 13.8 mph - N/A   Overcast
10:54 AM 41.0 °F 33.9 °F 27.0 °F 57% 29.76 in 10.0 mi NW 12.7 mph - N/A   Overcast
11:54 AM 46.0 °F 40.6 °F 30.0 °F 54% 29.76 in 10.0 mi NNW 11.5 mph - N/A   Overcast
12:54 PM 43.0 °F 35.7 °F 27.0 °F 53% 29.75 in 10.0 mi NNW 15.0 mph 24.2 mph N/A   Overcast
1:54 PM 44.6 °F 37.4 °F 24.8 °F 46% 29.74 in 10.0 mi NNW 16.1 mph 21.9 mph N/A   Overcast
2:54 PM 43.0 °F 36.8 °F 27.0 °F 53% 29.75 in 10.0 mi NW 11.5 mph - N/A   Overcast
3:54 PM 43.0 °F 35.1 °F 24.1 °F 47% 29.75 in 10.0 mi NNW 17.3 mph 23.0 mph N/A   Overcast
4:54 PM 43.0 °F 36.8 °F 25.0 °F 49% 29.76 in 10.0 mi NW 11.5 mph - N/A   Overcast
5:54 PM 41.0 °F 36.4 °F 24.1 °F 51% 29.78 in 10.0 mi NW 6.9 mph - N/A   Scattered Clouds
6:54 PM 41.0 °F 33.9 °F 24.1 °F 51% 29.80 in 10.0 mi NNW 12.7 mph - N/A   Overcast
7:54 PM 39.0 °F 32.3 °F 25.0 °F 57% 29.81 in 10.0 mi NNW 10.4 mph 20.7 mph N/A   Mostly Cloudy
8:54 PM 37.9 °F 30.9 °F 25.0 °F 60% 29.82 in 10.0 mi NNW 10.4 mph - N/A   Overcast
9:54 PM 37.9 °F 30.0 °F 25.0 °F 60% 29.83 in 10.0 mi NNW 12.7 mph - N/A   Overcast
10:54 PM 37.0 °F 28.1 °F 24.1 °F 59% 29.83 in 10.0 mi NNW 15.0 mph 25.3 mph N/A   Overcast
11:54 PM 36.0 °F 28.0 °F 24.1 °F 62% 29.83 in 10.0 mi NNW 11.5 mph 20.7 mph N/A   Overcast